Weather Roundup
Issued by NWS

Home | Current Version | Previous Version | Graphics & Text | Print | Product List | Glossary Off
Versions: 1 2 3 4 5 6 7 8 9 10 11 12 13 14 15 16 17 18 19 20 21 22 23 24 25 26 27 28 29 30 31 32 33 34 35 36 37 38 39 40 41 42 43 44 45 46 47 48 49 50

000
NZUS93 KARX 041059
HRRWXR

CURRENT HOURLY OBSERVATIONS ACROSS
MUCH OF THE UPPER MISSISSIPPI VALLEY
NATIONAL WEATHER SERVICE LA CROSSE WI
600 AM CDT SAT JUL 04 2015


...SOUTHEAST MINNESOTA...


CITY           SKY/WX    TMP DP  RH WIND       PRES   REMARKS
ROCHESTER      CLEAR     60  55  83 W7        29.98S
ROCHESTER/MAYO FAIR      63  55  76 CALM      29.97S
WINONA         PTCLDY    59  57  94 CALM      29.96S
AUSTIN         CLEAR     57  55  94 CALM      29.98R
ALBERT LEA     CLEAR     61  57  88 CALM      29.98R
DODGE CENTER   PTCLDY    57  55  94 SW5       29.97S
PRESTON        CLEAR     59  52  77 SW5       29.99R
OWATONNA       CLEAR     61  55  82 CALM      29.97S
FARIBAULT      CLEAR     61  57  88 S3        29.96S
$$

...ELSEWHERE IN MINNESOTA...


CITY           SKY/WX    TMP DP  RH WIND       PRES   REMARKS
MINNEAPOLIS    MOCLDY    66  60  81 SW3       29.94S
INTNL FALLS    CLEAR     51  50  96 SE3       29.95R FOG
DULUTH         CLEAR     58  53  84 E3        29.96R
RED WING       CLEAR     57  57 100 CALM      29.94R
REDWOOD FALLS  CLEAR     64  61  90 S3        29.94R FOG
MANKATO        CLEAR     61  57  88 S3        29.95F
WORTHINGTON    CLEAR     63  54  72 SW7       29.98S
FAIRMONT       CLEAR     63  54  72 CALM      29.97S
$$

...SOUTHWEST WISCONSIN...


CITY           SKY/WX    TMP DP  RH WIND       PRES   REMARKS
LA CROSSE      FAIR      62  61  96 S8        29.96R
PRAIRIE DU CHI CLEAR     56  55  94 CALM      29.98R
BOSCOBEL       FOG       56  54  93 CALM      29.98R VSB 1/4
LONE ROCK      CLOUDY    54  52  94 CALM      29.99R FOG
PLATTEVILLE    CLEAR     58  55  89 CALM      29.99R
FORT MC COY    CLOUDY    55  54  95 CALM      29.97R
CAMP DOUGLAS   CLEAR     54  54 100 SE2       29.95S FOG
VIROQUA        FAIR      59  59 100 SW6       29.98R
WIS DELLS      CLEAR     57  54  89 CALM      29.97R
$$

...ELSEWHERE IN WISCONSIN...


CITY           SKY/WX    TMP DP  RH WIND       PRES   REMARKS
MILWAUKEE      PTCLDY    62  55  77 W3        29.97R
MADISON        CLEAR     56  54  93 CALM      29.97R
GREEN BAY      CLEAR     60  57  89 W3        29.94R
EAU CLAIRE     NOT AVBL
BLACK RVR FLS  PTSUNNY   60  60 100 CALM      29.95S
MEDFORD        FOG       53  53  99 CALM      29.96R VSB 1/4
WAUSAU         CLEAR     57  55  93 E3        29.94R
WIS RAPIDS     CLOUDY    60  57  89 CALM      29.97R
MARSHFIELD     CLEAR     59  55  87 CALM      29.96R
RICE LAKE      FOG       57  56  96 CALM      29.96R VSB<1/4
$$

...NORTHEAST IOWA...


CITY           SKY/WX    TMP DP  RH WIND       PRES   REMARKS
DECORAH          N/A    N/A N/A N/A MISG        N/A
MASON CITY     CLEAR     59  55  87 W6        30.00R
CHARLES CITY   CLEAR     55  55 100 W3        29.99R
OELWEIN          N/A     57  55  94 CALM      29.99S
$$

...ELSEWHERE IN IOWA...


CITY           SKY/WX    TMP DP  RH WIND       PRES   REMARKS
DES MOINES     PTCLDY    61  55  81 CALM      29.99R
IOWA CITY      CLEAR     56  54  93 CALM      30.00R
FORT DODGE     CLEAR     54  52  94 CALM      30.00S
$$

...NORTHERN ILLINOIS...


CITY           SKY/WX    TMP DP  RH WIND       PRES   REMARKS
CHICAGO-OHARE  PTCLDY    60  55  83 W6        29.97R
CHICAGO-MIDWAY MOCLDY    63  57  81 CALM      29.96S
MOLINE         CLEAR     56  53  90 CALM      29.98R FOG
ROCKFORD       CLEAR     58  55  90 CALM      29.99R FOG
PEORIA         CLEAR     61  57  87 CALM      29.98R FOG
$$

NOTE: "FAIR" INDICATES FEW OR NO CLOUDS BELOW 12,000 FEET WITH NO
SIGNIFICANT WEATHER AND/OR OBSTRUCTIONS TO VISIBILITY. WIND
SPEEDS ARE IN MILES-PER-HOUR.



USA.gov is the U.S. government's official web portal to all federal, state and local government web resources and services.